Terminal Aerodrome Forecast
Issued by NWS Omaha/Valley, NE

Home | Current Version | Previous Version | Text Only | Print | Product List | Glossary On
Versions: 1 2 3 4 5 6 7 8 9 10 11 12 13 14 15 16 17 18 19 20 21 22 23 24 25 26 27 28 29 30 31 32 33 34 35 36 37 38 39 40 41 42 43 44 45 46 47 48 49 50
000
FTUS43 KOAX 280538
TAFOMA
TAF
KOMA 280538Z 2806/2906 12008KT 6SM -SHRA BR OVC025
     FM280800 13010KT 5SM -SHRA BR OVC012
      TEMPO 2810/2814 2SM TSRA BR OVC010CB
     FM281800 18011KT P6SM BKN040 PROB30 2820/2824 5SM -TSRA
      BKN035CB=

USA.gov is the U.S. government's official web portal to all federal, state and local government web resources and services.